Back to catalog

STARLINK-37079

AliveCommunicationsVLEO
NORAD 68186·PAYLOAD·🇺🇸 United States

Launched Mar 14, 2026 from Vandenberg Space Force Base

Loading…

Next Passes (next 24 hours)

TLE

FreshSource: CelesTrak SupGP

Epoch: Sep 14, 2026, 15:23 UTC

1 68186C 26050V   26257.64145833 -.00000807  00000+0 -23828-4 0  2578
2 68186  53.1572 104.9169 0001188  91.7018 190.8172 15.34398584    17

Track STARLINK-37079 in real time with AllMySat

Download on the App Store